Warrenton, OR

3:07 PM PDT on September 30, 2016 (GMT -0700)
Astoria Regional

Weather History for KAST - August, 2013

Change the Weather History Date:

Thursday, August 29, 2013

  Actual Average Record
Temperature  
Mean Temperature 65 °F 60 °F  
Max Temperature 67 °F 69 °F 88 °F (1944)
Min Temperature 62 °F 52 °F 42 °F (1969)
Degree Days  
Heating Degree Days 0 5  
Month to date heating degree days 102 118  
Since 1 June heating degree days 425 510  
Since 1 July heating degree days 244 268  
Cooling Degree Days 0 0  
Month to date cooling degree days 1 0  
Year to date cooling degree days 5 3  
Since 1 June cooling degree days 4 3  
Growing Degree Days 14 (Base 50)    
Moisture  
Dew Point 62 °F    
Average Humidity 94    
Maximum Humidity 100    
Minimum Humidity 87    
Precipitation  
Precipitation 0.70 in 0.06 in 1.02 in (1977)
Month to date precipitation 1.35 1.05  
Year to date precipitation 36.35 37.99  
Snow  
Snow 0.00 in - - ()
Month to date snowfall 0.0  
Since 1 June snowfall 0.0  
Snow Depth 0.00 in    
Sea Level Pressure  
Sea Level Pressure 29.92 in    
Wind  
Wind Speed 5 mph (South)    
Max Wind Speed 23 mph    
Max Gust Speed 33 mph    
Visibility 8 miles    
Events Rain    
T = Trace of Precipitation, MM = Missing Value Source: NWS Daily Summary

Daily Weather History Graph

Daily Weather History Graph

Search for Another Location

Airport or City:

Trip Planner

Search our weather history database for the weather conditions in past years. The results will help you decide how hot, cold, wet, or windy it might be!

Date:

Astronomy

Aug. 29, 2013 Rise Set
Actual Time 6:32 AM PDT 7:59 PM PDT
Civil Twilight 6:01 AM PDT 8:30 PM PDT
Nautical Twilight 5:23 AM PDT 9:07 PM PDT
Astronomical Twilight 4:43 AM PDT 9:48 PM PDT
Moon 12:18 AM PDT (8/29) 3:42 PM PDT (8/29)
Length of Visible Light 14h 28m
Length of Day
13h 26m
Last Quarter, 37% of the Moon is Illuminated
Aug 29
Last Quarter
Sep 5
New
Sep 12
First Quarter
Sep 19
Full
Sep 26
Last Quarter

Hourly Weather History & Observations

Time (PDT) Temp. Dew Point Humidity Pressure Visibility Wind Dir Wind Speed Gust Speed Precip Events Conditions
12:03 AM 62.6 °F 60.8 °F 94% 29.88 in 10.0 mi East 3.5 mph - 0.00 in   Mostly Cloudy
12:55 AM 63.0 °F 62.1 °F 97% 29.88 in 10.0 mi Calm Calm - 0.00 in Rain Light Rain
1:55 AM 63.0 °F 61.0 °F 93% 29.88 in 10.0 mi Calm Calm - 0.00 in   Overcast
2:55 AM 63.0 °F 62.1 °F 97% 29.86 in 10.0 mi Calm Calm - 0.01 in   Mostly Cloudy
3:55 AM 63.0 °F 62.1 °F 97% 29.84 in 10.0 mi Calm Calm - N/A   Overcast
4:55 AM 63.0 °F 61.0 °F 93% 29.83 in 10.0 mi Calm Calm - 0.00 in   Overcast
5:55 AM 63.0 °F 62.1 °F 97% 29.84 in 10.0 mi Calm Calm - 0.00 in Rain Light Rain
6:55 AM 62.1 °F 62.1 °F 100% 29.85 in 9.0 mi Calm Calm - 0.01 in Rain Light Rain
7:55 AM 63.0 °F 62.1 °F 97% 29.85 in 5.0 mi Calm Calm - 0.07 in Rain Light Rain
8:55 AM 63.0 °F 62.1 °F 97% 29.87 in 3.0 mi SSE 3.5 mph - 0.10 in Rain Rain
9:08 AM 62.6 °F 62.6 °F 100% 29.88 in 2.5 mi SSW 5.8 mph - 0.05 in Rain Rain
9:12 AM 62.6 °F 62.6 °F 100% 29.88 in 1.2 mi South 3.5 mph - 0.12 in Rain Heavy Rain
9:18 AM 62.6 °F 62.6 °F 100% 29.88 in 1.5 mi SSE 5.8 mph - 0.19 in Rain Heavy Rain
9:23 AM 62.6 °F 62.6 °F 100% 29.88 in 3.0 mi SSE 4.6 mph - 0.22 in Rain Rain
9:55 AM 63.0 °F 62.1 °F 97% 29.88 in 3.0 mi SE 4.6 mph - 0.41 in Rain Rain
10:36 AM 64.4 °F 62.6 °F 94% 29.89 in 9.0 mi South 6.9 mph - 0.03 in Rain Light Rain
10:55 AM 64.9 °F 62.1 °F 90% 29.89 in 5.0 mi South 13.8 mph 19.6 mph 0.03 in Rain Light Rain
11:00 AM 64.4 °F 62.6 °F 94% 29.89 in 2.5 mi South 10.4 mph 19.6 mph 0.00 in Rain Light Rain
11:14 AM 64.4 °F 62.6 °F 94% 29.89 in 4.0 mi South 11.5 mph 21.9 mph 0.02 in Rain Light Rain
11:50 AM 64.4 °F 62.6 °F 94% 29.90 in 6.0 mi South 8.1 mph - 0.03 in Rain Light Rain
11:55 AM 66.0 °F 64.0 °F 93% 29.91 in 7.0 mi South 8.1 mph - 0.03 in Rain Light Rain
12:02 PM 66.2 °F 64.4 °F 94% 29.90 in 10.0 mi South 9.2 mph - 0.00 in   Overcast
12:45 PM 66.2 °F 62.6 °F 88% 29.91 in 9.0 mi South 18.4 mph 29.9 mph 0.00 in   Overcast
12:55 PM 66.9 °F 64.0 °F 90% 29.91 in 9.0 mi South 18.4 mph 28.8 mph 0.00 in   Overcast
1:55 PM 66.0 °F 63.0 °F 90% 29.92 in 4.0 mi South 16.1 mph 26.5 mph 0.00 in Rain Light Rain
2:03 PM 66.2 °F 62.6 °F 88% 29.92 in 4.0 mi SSW 18.4 mph 27.6 mph 0.00 in   Overcast
2:29 PM 66.2 °F 62.6 °F 88% 29.93 in 10.0 mi South 15.0 mph - 0.00 in   Overcast
2:48 PM 66.2 °F 62.6 °F 88% 29.93 in 10.0 mi SSW 15.0 mph 26.5 mph 0.00 in   Overcast
2:55 PM 66.0 °F 63.0 °F 90% 29.94 in 10.0 mi South 18.4 mph 32.2 mph 0.00 in   Overcast
3:21 PM 64.4 °F 62.6 °F 94% 29.94 in 2.0 mi South 15.0 mph 26.5 mph 0.02 in Rain Rain
3:28 PM 64.4 °F 62.6 °F 94% 29.94 in 3.0 mi South 19.6 mph 26.5 mph 0.03 in Rain Light Rain
3:55 PM 64.9 °F 62.1 °F 90% 29.95 in 10.0 mi South 16.1 mph 29.9 mph 0.03 in   Overcast
4:31 PM 66.2 °F 62.6 °F 88% 29.95 in 10.0 mi SSW 13.8 mph 25.3 mph N/A   Overcast
4:55 PM 66.0 °F 62.1 °F 87% 29.96 in 10.0 mi SSW 13.8 mph 24.2 mph N/A   Overcast
5:26 PM 64.4 °F 60.8 °F 88% 29.96 in 10.0 mi SSW 15.0 mph 24.2 mph 0.00 in   Overcast
5:55 PM 64.0 °F 62.1 °F 93% 29.97 in 5.0 mi South 13.8 mph 20.7 mph 0.00 in Rain Light Rain
6:55 PM 64.0 °F 61.0 °F 90% 29.98 in 5.0 mi South 13.8 mph 25.3 mph 0.00 in Rain Light Rain
7:13 PM 62.6 °F 60.8 °F 94% 29.98 in 10.0 mi South 16.1 mph 25.3 mph 0.01 in   Overcast
7:55 PM 64.0 °F 61.0 °F 90% 29.99 in 10.0 mi South 12.7 mph 21.9 mph 0.01 in   Overcast
8:55 PM 63.0 °F 61.0 °F 93% 30.01 in 10.0 mi SSW 17.3 mph 25.3 mph N/A   Overcast
9:55 PM 63.0 °F 61.0 °F 93% 30.03 in 10.0 mi SSW 13.8 mph 21.9 mph N/A   Overcast
10:55 PM 63.0 °F 61.0 °F 93% 30.04 in 10.0 mi SSW 10.4 mph 17.3 mph N/A   Overcast
11:27 PM 62.6 °F 60.8 °F 94% 30.04 in 10.0 mi SSW 9.2 mph 20.7 mph N/A   Overcast
11:53 PM 62.6 °F 60.8 °F 94% 30.04 in 10.0 mi SSW 9.2 mph - N/A   Overcast
11:55 PM 63.0 °F 61.0 °F 93% 30.05 in 10.0 mi SSW 9.2 mph - N/A   Overcast